Location: Iowa City
(41.6610°N, 91.5300°W)
Time: 02:05:33
(UTC-05:00)

ISS - Visible Passes

Search period start: 19 April 2014 00:00
Search period end: 29 April 2014 00:00
Orbit: 414 x 419 km, 51.6° (Epoch: 19 April)

Date Brightness Start Highest point End Pass type
(mag) Time Alt. Az. Time Alt. Az. Time Alt. Az.
19 Apr -2.3 21:15:17 10° NW 21:18:28 37° NNE 21:19:41 27° ENE visible
19 Apr -0.1 22:52:10 10° WNW 22:52:35 13° WNW 22:52:35 13° WNW visible
20 Apr -1.7 20:26:59 10° NW 20:29:55 27° NNE 20:32:51 10° E visible
20 Apr -2.2 22:03:32 10° WNW 22:06:06 42° W 22:06:06 42° W visible
21 Apr -3.3 21:15:02 10° NW 21:18:24 90° SW 21:19:37 36° SE visible
22 Apr -2.9 20:26:33 10° NW 20:29:52 54° NNE 20:33:09 10° ESE visible
22 Apr -1.1 22:03:56 10° W 22:06:03 18° SW 22:06:03 18° SW visible
23 Apr -1.9 21:14:55 10° WNW 21:17:56 31° SW 21:19:36 20° S visible
24 Apr -2.8 20:26:07 10° WNW 20:29:25 56° SW 20:32:42 10° SE visible
25 Apr -0.5 21:15:51 10° WSW 21:17:04 12° SW 21:18:17 10° SSW visible
26 Apr -1.0 20:26:03 10° W 20:28:35 20° SW 20:31:06 10° S visible
